Location: Helsinki
(60.1699°N, 24.9384°E)
Time: 20:55:23
(UTC+02:00)

Transit 2A Rocket - Pass Details

Date: 23 September 2023
Orbit: 593 x 903 km, 66.7° (Epoch: 29 November)

Event Time Altitude Azimuth Distance (km) Brightness Sun altitude
Rises 15:14:59 0° 163° (SSE) 3,319 8.8 25.3°
Reaches altitude 10° 15:18:36 10° 140° (SE) 2,324 7.8 25.0°
Maximum altitude 15:21:17 14° 110° (ESE) 2,000 7.1 24.8°
Drops below altitude 10° 15:23:52 10° 79° (ENE) 2,224 7.1 24.6°
Sets 15:27:11 0° 55° (NE) 3,079 7.6 24.4°
